Time,TemperatureF,DewpointF,PressureIn,WindDirection,WindDirectionDegrees,WindSpeedMPH,WindSpeedGustMPH,Humidity,HourlyPrecipIn,Conditions,Clouds,dailyrainin,SoftwareType,DateUTC
2013-03-01 00:02:00,32.0,29.0,29.64,WNW,301,2.0,8.0,88,0.00,,,0.13,,2013-03-01 05:02:00,
2013-03-01 00:11:00,32.0,29.0,29.64,WNW,301,2.0,8.0,88,0.00,,,0.13,,2013-03-01 05:11:00,
2013-03-01 00:22:00,32.0,29.0,29.64,NW,305,3.0,8.0,88,0.00,,,0.13,,2013-03-01 05:22:00,
2013-03-01 00:33:00,32.0,29.0,29.64,West,262,3.0,8.0,88,0.00,,,0.12,,2013-03-01 05:33:00,
2013-03-01 00:42:00,32.0,29.0,29.64,West,262,3.0,8.0,88,0.00,,,0.12,,2013-03-01 05:42:00,
2013-03-01 00:53:00,32.0,29.0,29.64,North,352,3.0,11.0,87,0.00,,,0.12,,2013-03-01 05:53:00,
2013-03-01 01:02:00,32.0,29.0,29.64,WNW,287,3.0,7.0,87,0.00,,,0.12,,2013-03-01 06:02:00,
2013-03-01 01:12:00,32.0,29.0,29.64,WNW,287,3.0,7.0,87,0.00,,,0.12,,2013-03-01 06:12:00,
2013-03-01 01:22:00,32.0,29.0,29.65,WSW,253,4.0,7.0,87,0.00,,,0.12,,2013-03-01 06:22:00,
2013-03-01 01:32:00,32.0,29.0,29.65,WNW,301,3.0,8.0,88,0.00,,,0.11,,2013-03-01 06:32:00,
2013-03-01 01:42:00,32.0,29.0,29.65,WNW,301,3.0,8.0,88,0.00,,,0.11,,2013-03-01 06:42:00,
2013-03-01 01:53:00,32.0,29.0,29.65,WNW,287,3.0,6.0,88,0.00,,,0.11,,2013-03-01 06:53:00,
2013-03-01 02:02:00,32.0,29.0,29.65,WSW,253,3.0,8.0,87,0.00,,,0.11,,2013-03-01 07:02:00,
2013-03-01 02:12:00,32.0,29.0,29.65,WSW,253,3.0,8.0,87,0.00,,,0.11,,2013-03-01 07:12:00,
2013-03-01 02:22:00,32.0,28.0,29.66,WNW,301,3.0,6.0,86,0.00,,,0.11,,2013-03-01 07:22:00,
2013-03-01 02:32:00,32.0,28.0,29.66,WNW,297,3.0,5.0,86,0.00,,,0.11,,2013-03-01 07:32:00,
2013-03-01 02:42:00,32.0,28.0,29.66,WNW,297,3.0,5.0,86,0.00,,,0.11,,2013-03-01 07:42:00,
2013-03-01 02:52:00,32.0,28.0,29.66,West,278,3.0,7.0,86,0.00,,,0.11,,2013-03-01 07:52:00,
2013-03-01 03:02:00,32.0,28.0,29.66,NW,305,3.0,6.0,86,0.00,,,0.11,,2013-03-01 08:02:00,
2013-03-01 03:12:00,32.0,28.0,29.66,NW,305,3.0,6.0,86,0.00,,,0.11,,2013-03-01 08:12:00,
2013-03-01 03:22:00,32.0,28.0,29.66,West,264,3.0,7.0,86,0.00,,,0.11,,2013-03-01 08:22:00,
2013-03-01 03:32:00,32.0,28.0,29.66,WNW,285,4.0,8.0,86,0.00,,,0.11,,2013-03-01 08:32:00,
2013-03-01 03:43:00,32.0,28.0,29.66,WNW,285,4.0,8.0,86,0.00,,,0.11,,2013-03-01 08:43:00,
2013-03-01 03:53:00,32.0,28.0,29.67,West,269,2.0,6.0,86,0.00,,,0.11,,2013-03-01 08:53:00,
2013-03-01 04:02:00,32.0,28.0,29.67,SSW,210,2.0,4.0,86,0.00,,,0.11,,2013-03-01 09:02:00,
2013-03-01 04:12:00,32.0,28.0,29.67,SSW,210,2.0,4.0,86,0.00,,,0.11,,2013-03-01 09:12:00,
2013-03-01 04:22:00,32.0,28.0,29.67,West,260,4.0,10.0,86,0.00,,,0.11,,2013-03-01 09:22:00,
2013-03-01 04:32:00,32.0,28.0,29.67,West,276,4.0,8.0,85,0.00,,,0.11,,2013-03-01 09:32:00,
2013-03-01 04:42:00,32.0,28.0,29.67,West,276,4.0,8.0,85,0.00,,,0.11,,2013-03-01 09:42:00,
2013-03-01 04:53:00,32.0,28.0,29.67,WNW,290,6.0,9.0,85,0.00,,,0.11,,2013-03-01 09:53:00,
2013-03-01 05:02:00,32.0,28.0,29.67,West,259,4.0,11.0,85,0.00,,,0.11,,2013-03-01 10:02:00,
2013-03-01 05:12:00,32.0,28.0,29.67,West,259,4.0,11.0,85,0.00,,,0.11,,2013-03-01 10:12:00,
2013-03-01 05:22:00,32.0,28.0,29.68,West,263,4.0,9.0,85,0.00,,,0.11,,2013-03-01 10:22:00,
2013-03-01 05:32:00,32.0,28.0,29.68,WNW,288,3.0,11.0,86,0.00,,,0.11,,2013-03-01 10:32:00,
2013-03-01 05:42:00,32.0,28.0,29.68,WNW,288,3.0,11.0,86,0.00,,,0.11,,2013-03-01 10:42:00,
2013-03-01 05:53:00,32.0,28.0,29.69,WNW,300,5.0,10.0,85,0.00,,,0.11,,2013-03-01 10:53:00,
2013-03-01 06:02:00,32.0,28.0,29.69,WNW,301,3.0,10.0,86,0.00,,,0.11,,2013-03-01 11:02:00,
2013-03-01 06:11:00,32.0,28.0,29.69,WNW,301,3.0,10.0,86,0.00,,,0.11,,2013-03-01 11:11:00,
2013-03-01 06:22:00,32.0,28.0,29.69,WNW,290,4.0,10.0,86,0.00,,,0.11,,2013-03-01 11:22:00,
2013-03-01 06:32:00,31.0,27.0,29.70,NW,321,5.0,14.0,86,0.00,,,0.11,,2013-03-01 11:32:00,
2013-03-01 06:42:00,31.0,27.0,29.70,NW,321,5.0,14.0,86,0.00,,,0.11,,2013-03-01 11:42:00,
2013-03-01 06:53:00,31.0,27.0,29.70,WNW,297,4.0,10.0,86,0.00,,,0.11,,2013-03-01 11:53:00,
2013-03-01 07:02:00,31.0,27.0,29.70,WNW,283,4.0,10.0,86,0.00,,,0.11,,2013-03-01 12:02:00,
2013-03-01 07:11:00,31.0,27.0,29.70,WNW,283,4.0,10.0,86,0.00,,,0.11,,2013-03-01 12:11:00,
2013-03-01 07:22:00,31.0,28.0,29.70,NW,318,4.0,10.0,88,0.00,,,0.11,,2013-03-01 12:22:00,
2013-03-01 07:32:00,31.0,27.0,29.71,NW,326,8.0,16.0,86,0.00,,,0.11,,2013-03-01 12:32:00,
2013-03-01 07:42:00,31.0,27.0,29.71,NW,326,8.0,16.0,86,0.00,,,0.11,,2013-03-01 12:42:00,
2013-03-01 07:52:00,31.0,27.0,29.71,WNW,293,7.0,15.0,86,0.00,,,0.11,,2013-03-01 12:52:00,
2013-03-01 08:01:00,31.0,27.0,29.72,NW,317,7.0,15.0,85,0.00,,,0.11,,2013-03-01 13:01:00,
2013-03-01 08:11:00,31.0,27.0,29.72,NW,317,7.0,15.0,85,0.00,,,0.11,,2013-03-01 13:11:00,
2013-03-01 08:22:00,31.0,27.0,29.72,WNW,287,7.0,12.0,84,0.00,,,0.11,,2013-03-01 13:22:00,
2013-03-01 08:32:00,31.0,27.0,29.73,WNW,299,9.0,15.0,84,0.00,,,0.11,,2013-03-01 13:32:00,
2013-03-01 08:42:00,31.0,27.0,29.73,WNW,299,9.0,15.0,84,0.00,,,0.11,,2013-03-01 13:42:00,
2013-03-01 08:52:00,31.0,26.0,29.73,WNW,294,5.0,14.0,83,0.00,,,0.11,,2013-03-01 13:52:00,
2013-03-01 09:01:00,31.0,26.0,29.73,WNW,294,8.0,12.0,81,0.00,,,0.11,,2013-03-01 14:01:00,
2013-03-01 09:11:00,31.0,26.0,29.73,WNW,294,8.0,12.0,81,0.00,,,0.11,,2013-03-01 14:11:00,
2013-03-01 09:22:00,31.0,26.0,29.73,NNW,346,9.0,11.0,81,0.00,,,0.11,,2013-03-01 14:22:00,
2013-03-01 09:32:00,31.0,26.0,29.74,WNW,297,6.0,11.0,81,0.00,,,0.11,,2013-03-01 14:32:00,
2013-03-01 09:42:00,31.0,26.0,29.74,WNW,297,6.0,11.0,81,0.00,,,0.11,,2013-03-01 14:42:00,
2013-03-01 09:52:00,31.0,26.0,29.75,NW,319,4.0,10.0,82,0.00,,,0.11,,2013-03-01 14:52:00,
2013-03-01 10:02:00,31.0,26.0,29.75,NNW,331,6.0,14.0,82,0.00,,,0.11,,2013-03-01 15:02:00,
2013-03-01 10:11:00,31.0,26.0,29.75,West,273,5.0,14.0,82,0.00,,,0.11,,2013-03-01 15:11:00,
2013-03-01 10:21:00,31.0,26.0,29.75,West,273,5.0,14.0,82,0.00,,,0.11,,2013-03-01 15:21:00,
2013-03-01 10:32:00,31.0,26.0,29.75,NE,44,8.0,12.0,81,0.00,,,0.10,,2013-03-01 15:32:00,
2013-03-01 10:42:00,31.0,26.0,29.75,NE,44,8.0,12.0,81,0.00,,,0.10,,2013-03-01 15:42:00,
2013-03-01 10:52:00,31.0,26.0,29.75,WNW,301,3.0,18.0,82,0.00,,,0.10,,2013-03-01 15:52:00,
2013-03-01 11:01:00,31.0,26.0,29.76,NNW,347,5.0,14.0,81,0.00,,,0.10,,2013-03-01 16:01:00,
2013-03-01 11:11:00,31.0,26.0,29.76,NNW,347,5.0,14.0,81,0.00,,,0.10,,2013-03-01 16:11:00,
2013-03-01 11:21:00,32.0,26.0,29.76,North,349,5.0,9.0,79,0.00,,,0.10,,2013-03-01 16:21:00,
2013-03-01 11:32:00,31.0,25.0,29.76,WNW,289,7.0,15.0,78,0.00,,,0.09,,2013-03-01 16:32:00,
2013-03-01 11:42:00,31.0,25.0,29.76,WNW,289,7.0,15.0,78,0.00,,,0.09,,2013-03-01 16:42:00,
2013-03-01 11:52:00,32.0,26.0,29.76,NNW,347,3.0,14.0,78,0.00,,,0.09,,2013-03-01 16:52:00,
2013-03-01 12:01:00,32.0,26.0,29.76,NNE,25,7.0,11.0,79,0.00,,,0.09,,2013-03-01 17:01:00,
2013-03-01 12:11:00,32.0,26.0,29.76,NNE,25,7.0,11.0,79,0.00,,,0.09,,2013-03-01 17:11:00,
2013-03-01 12:21:00,32.0,26.0,29.76,NW,326,5.0,13.0,77,0.00,,,0.09,,2013-03-01 17:21:00,
2013-03-01 12:32:00,33.0,26.0,29.76,NNW,335,7.0,13.0,74,0.00,,,0.07,,2013-03-01 17:32:00,
2013-03-01 12:42:00,33.0,26.0,29.76,NNW,335,7.0,13.0,74,0.00,,,0.07,,2013-03-01 17:42:00,
2013-03-01 12:52:00,33.0,25.0,29.75,NW,316,6.0,14.0,72,0.00,,,0.07,,2013-03-01 17:52:00,
2013-03-01 13:01:00,33.0,25.0,29.75,NNE,22,7.0,14.0,72,0.00,,,0.07,,2013-03-01 18:01:00,
2013-03-01 13:12:00,33.0,25.0,29.75,NNE,22,7.0,14.0,72,0.00,,,0.07,,2013-03-01 18:12:00,
2013-03-01 13:22:00,33.0,25.0,29.75,NW,306,6.0,15.0,72,0.00,,,0.07,,2013-03-01 18:22:00,
2013-03-01 13:32:00,33.0,24.0,29.75,NNW,328,5.0,13.0,69,0.00,,,0.05,,2013-03-01 18:32:00,
2013-03-01 13:42:00,33.0,24.0,29.75,NNW,328,5.0,13.0,69,0.00,,,0.05,,2013-03-01 18:42:00,
2013-03-01 13:52:00,33.0,24.0,29.75,NW,311,7.0,13.0,70,0.00,,,0.05,,2013-03-01 18:52:00,
2013-03-01 14:01:00,33.0,25.0,29.74,NW,316,5.0,12.0,71,0.00,,,0.05,,2013-03-01 19:01:00,
2013-03-01 14:11:00,33.0,25.0,29.74,NW,316,5.0,12.0,71,0.00,,,0.05,,2013-03-01 19:11:00,
2013-03-01 14:21:00,33.0,25.0,29.74,NW,306,5.0,12.0,71,0.00,,,0.05,,2013-03-01 19:21:00,
2013-03-01 14:32:00,33.0,24.0,29.75,WNW,293,8.0,12.0,69,0.01,,,0.05,,2013-03-01 19:32:00,
2013-03-01 14:42:00,33.0,24.0,29.75,WNW,293,8.0,12.0,69,0.01,,,0.05,,2013-03-01 19:42:00,
2013-03-01 14:52:00,33.0,24.0,29.75,East,79,7.0,12.0,69,0.01,,,0.05,,2013-03-01 19:52:00,
2013-03-01 15:01:00,34.0,25.0,29.75,NNE,13,5.0,11.0,69,0.01,,,0.05,,2013-03-01 20:01:00,
2013-03-01 15:11:00,34.0,25.0,29.75,NNE,13,5.0,11.0,69,0.01,,,0.05,,2013-03-01 20:11:00,
2013-03-01 15:21:00,33.0,24.0,29.75,NNE,18,8.0,15.0,68,0.01,,,0.05,,2013-03-01 20:21:00,
2013-03-01 15:32:00,33.0,24.0,29.75,NW,305,6.0,13.0,68,0.00,,,0.04,,2013-03-01 20:32:00,
2013-03-01 15:42:00,33.0,24.0,29.75,NW,305,6.0,13.0,68,0.00,,,0.04,,2013-03-01 20:42:00,
2013-03-01 15:52:00,33.0,24.0,29.75,NW,316,7.0,15.0,68,0.00,,,0.04,,2013-03-01 20:52:00,
2013-03-01 16:01:00,33.0,24.0,29.75,NNE,16,4.0,8.0,69,0.00,,,0.04,,2013-03-01 21:01:00,
2013-03-01 16:11:00,33.0,24.0,29.75,NNW,335,5.0,10.0,70,0.01,,,0.05,,2013-03-01 21:11:00,
2013-03-01 16:21:00,33.0,24.0,29.75,NNW,335,5.0,10.0,70,0.01,,,0.05,,2013-03-01 21:21:00,
2013-03-01 16:32:00,32.0,24.0,29.76,North,11,5.0,11.0,71,0.01,,,0.03,,2013-03-01 21:32:00,
2013-03-01 16:42:00,32.0,24.0,29.76,North,11,5.0,11.0,71,0.01,,,0.03,,2013-03-01 21:42:00,
2013-03-01 16:52:00,32.0,25.0,29.76,NE,37,3.0,12.0,74,0.01,,,0.03,,2013-03-01 21:52:00,
2013-03-01 17:01:00,31.0,24.0,29.76,NE,34,6.0,14.0,75,0.01,,,0.03,,2013-03-01 22:01:00,
2013-03-01 17:11:00,31.0,24.0,29.76,NE,34,6.0,14.0,75,0.01,,,0.03,,2013-03-01 22:11:00,
2013-03-01 17:22:00,31.0,24.0,29.77,WNW,294,2.0,9.0,74,0.00,,,0.03,,2013-03-01 22:22:00,
2013-03-01 17:32:00,31.0,24.0,29.78,NW,306,6.0,11.0,75,0.00,,,0.02,,2013-03-01 22:32:00,
2013-03-01 17:42:00,31.0,24.0,29.78,NW,306,6.0,11.0,75,0.00,,,0.02,,2013-03-01 22:42:00,
2013-03-01 17:52:00,30.0,24.0,29.78,WNW,291,3.0,14.0,77,0.00,,,0.02,,2013-03-01 22:52:00,
2013-03-01 18:01:00,30.0,24.0,29.78,NW,313,4.0,11.0,78,0.00,,,0.02,,2013-03-01 23:01:00,
2013-03-01 18:11:00,30.0,24.0,29.78,NW,313,4.0,11.0,78,0.00,,,0.02,,2013-03-01 23:11:00,
2013-03-01 18:21:00,30.0,24.0,29.79,WNW,294,4.0,10.0,79,0.00,,,0.02,,2013-03-01 23:21:00,
2013-03-01 18:32:00,30.0,24.0,29.79,North,359,6.0,12.0,78,0.00,,,0.02,,2013-03-01 23:32:00,
2013-03-01 18:41:00,30.0,24.0,29.79,North,359,6.0,12.0,78,0.00,,,0.02,,2013-03-01 23:41:00,
2013-03-01 18:52:00,30.0,23.0,29.79,NNW,340,4.0,9.0,75,0.00,,,0.02,,2013-03-01 23:52:00,
2013-03-01 19:02:00,29.0,22.0,29.80,NW,311,3.0,12.0,76,0.00,,,0.02,,2013-03-02 00:02:00,
2013-03-01 19:12:00,29.0,22.0,29.80,NW,311,3.0,12.0,76,0.00,,,0.02,,2013-03-02 00:12:00,
2013-03-01 19:22:00,29.0,22.0,29.80,NNE,23,5.0,13.0,76,0.00,,,0.02,,2013-03-02 00:22:00,
2013-03-01 19:32:00,29.0,22.0,29.80,NNW,338,5.0,14.0,76,0.00,,,0.02,,2013-03-02 00:32:00,
2013-03-01 19:42:00,29.0,22.0,29.80,NNW,338,5.0,14.0,76,0.00,,,0.02,,2013-03-02 00:42:00,
2013-03-01 19:52:00,29.0,22.0,29.80,North,357,8.0,14.0,76,0.00,,,0.02,,2013-03-02 00:52:00,
2013-03-01 20:01:00,29.0,22.0,29.80,NNE,33,4.0,12.0,76,0.00,,,0.02,,2013-03-02 01:01:00,
2013-03-01 20:11:00,29.0,22.0,29.80,NNE,33,4.0,12.0,76,0.00,,,0.02,,2013-03-02 01:11:00,
2013-03-01 20:21:00,28.0,22.0,29.81,NW,304,5.0,10.0,78,0.00,,,0.02,,2013-03-02 01:21:00,
2013-03-01 20:32:00,28.0,22.0,29.81,NW,310,5.0,10.0,78,0.00,,,0.02,,2013-03-02 01:32:00,
2013-03-01 20:42:00,28.0,22.0,29.81,NW,310,5.0,10.0,78,0.00,,,0.02,,2013-03-02 01:42:00,
2013-03-01 20:52:00,28.0,22.0,29.81,NW,323,7.0,13.0,77,0.00,,,0.02,,2013-03-02 01:52:00,
2013-03-01 21:01:00,27.0,21.0,29.82,West,259,4.0,15.0,77,0.00,,,0.02,,2013-03-02 02:01:00,
2013-03-01 21:11:00,27.0,21.0,29.82,West,259,4.0,15.0,77,0.00,,,0.02,,2013-03-02 02:11:00,
2013-03-01 21:22:00,27.0,20.0,29.82,WNW,288,7.0,14.0,76,0.00,,,0.02,,2013-03-02 02:22:00,
2013-03-01 21:32:00,27.0,21.0,29.82,NE,34,5.0,13.0,77,0.00,,,0.02,,2013-03-02 02:32:00,
2013-03-01 21:42:00,27.0,21.0,29.82,NE,34,5.0,13.0,77,0.00,,,0.02,,2013-03-02 02:42:00,
2013-03-01 21:52:00,27.0,21.0,29.82,NW,304,5.0,13.0,77,0.00,,,0.02,,2013-03-02 02:52:00,
2013-03-01 22:02:00,27.0,21.0,29.82,North,1,3.0,12.0,77,0.00,,,0.02,,2013-03-02 03:02:00,
2013-03-01 22:11:00,27.0,21.0,29.82,North,1,3.0,12.0,77,0.00,,,0.02,,2013-03-02 03:11:00,
2013-03-01 22:22:00,26.0,20.0,29.83,NNW,333,7.0,15.0,77,0.00,,,0.02,,2013-03-02 03:22:00,
2013-03-01 22:32:00,26.0,20.0,29.83,NNE,19,7.0,13.0,77,0.00,,,0.02,,2013-03-02 03:32:00,
2013-03-01 22:42:00,26.0,20.0,29.83,NNE,19,7.0,13.0,77,0.00,,,0.02,,2013-03-02 03:42:00,
2013-03-01 22:52:00,26.0,20.0,29.83,NNW,340,8.0,17.0,78,0.00,,,0.02,,2013-03-02 03:52:00,
2013-03-01 23:01:00,25.0,19.0,29.83,North,355,5.0,11.0,79,0.00,,,0.02,,2013-03-02 04:01:00,
2013-03-01 23:11:00,25.0,19.0,29.83,North,355,5.0,11.0,79,0.00,,,0.02,,2013-03-02 04:11:00,
2013-03-01 23:22:00,25.0,20.0,29.83,NNE,21,5.0,18.0,80,0.00,,,0.02,,2013-03-02 04:22:00,
2013-03-01 23:32:00,25.0,20.0,29.83,North,350,5.0,14.0,80,0.00,,,0.02,,2013-03-02 04:32:00,
2013-03-01 23:42:00,25.0,20.0,29.83,North,350,5.0,14.0,80,0.00,,,0.02,,2013-03-02 04:42:00,
2013-03-01 23:52:00,25.0,20.0,29.83,NW,309,4.0,7.0,81,0.00,,,0.02,,2013-03-02 04:52:00,